User: anonymous   Login
Location: Unspecified
(0.0000°N, 0.0000°E)
Time: 20:00:39
(UTC+00:00)
Language:

COSMOS 2429 - Orbit

View from above orbital plane
View from above orbital plane
View from above satellite
View from above satellite

Ground track
Ground track

The orbit data is extracted from the following two-line orbital elements,

1 32052U 07038A   17144.93432034 +.00000028 +00000-0 +12621-4 0  9991
2 32052 082.9786 124.9022 0039760 116.4943 244.0299 13.74888571486759
Epoch (UTC): 24 May 2017 22:25:25
Eccentricity: 0.0039760
inclination: 82.9786°
perigee height: 953 km
apogee height: 1011 km
right ascension of ascending node: 124.9022°
argument of perigee: 116.4943°
revolutions per day: 13.74888571
mean anomaly at epoch: 244.0299°
orbit number at epoch: 48675

The dashed part of the orbit path shows where the satellite is in the earth's shadow,  

DLR